Weather History for Jamestown, ND

Change the Weather History Date:

Saturday, August 31, 2013

  Actual Average Record
Temperature  
Mean Temperature 73 °F 64 °F  
Max Temperature 84 °F 77 °F 100 °F (1953)
Min Temperature 61 °F 51 °F 36 °F (1909)
Degree Days  
Heating Degree Days 0 3  
Month to date heating degree days 21 46  
Since 1 June heating degree days 129 163  
Since 1 July heating degree days 44 66  
Cooling Degree Days 8 3  
Month to date cooling degree days 173 143  
Year to date cooling degree days 466 415  
Since 1 June cooling degree days 455 395  
Growing Degree Days 22 (Base 50)    
Moisture  
Dew Point 58 °F    
Average Humidity 53    
Maximum Humidity 72    
Minimum Humidity 34    
Precipitation  
Precipitation T in 0.07 in 3.97 in (1997)
Month to date precipitation 1.21 2.10  
Year to date precipitation 9.20 14.19  
Sea Level Pressure  
Sea Level Pressure 29.78 in    
Wind  
Wind Speed 10 mph (West)    
Max Wind Speed 28 mph    
Max Gust Speed 35 mph    
Visibility 10 miles    
Events Rain    
T = Trace of Precipitation, MM = Missing Value Source: NWS Daily Summary

Daily Weather History Graph

Daily Weather History Graph

Search for Another Location

Airport:

Trip Planner

Search our weather history database for the weather conditions in past years. The results will help you decide how hot, cold, wet, or windy it might be!

Date:

Astronomy

Aug. 31, 2013 Rise Set
Actual Time 6:53 AM CDT 8:15 PM CDT
Civil Twilight 6:21 AM CDT 8:47 PM CDT
Nautical Twilight 5:43 AM CDT 9:25 PM CDT
Astronomical Twilight 5:02 AM CDT 10:05 PM CDT
Moon 2:12 AM CDT (8/31) 5:24 PM CDT (8/31)
Length of Visible Light 14h 25m
Length of Day
13h 22m
Waning Crescent, 21% of the Moon is Illuminated
Aug 31
Waning Crescent
Sep 5
New
Sep 12
First Quarter
Sep 19
Full
Sep 26
Last Quarter

Hourly Weather History & Observations

Time (CDT) Temp. Heat Index Dew Point Humidity Pressure Visibility Wind Dir Wind Speed Gust Speed Precip Events Conditions
12:56 AM 73.9 °F - 62.1 °F 66% 29.79 in 10.0 mi South 15.0 mph 27.6 mph 0.00 in Rain Light Rain
1:39 AM 73.4 °F - 62.6 °F 69% 29.77 in 10.0 mi South 8.1 mph - 0.00 in   Mostly Cloudy
1:56 AM 75.9 °F - 60.1 °F 58% 29.75 in 10.0 mi Calm Calm - 0.00 in   Scattered Clouds
2:56 AM 75.0 °F - 57.0 °F 53% 29.78 in 10.0 mi SW 10.4 mph - N/A   Clear
3:56 AM 71.1 °F - 60.1 °F 68% 29.78 in 10.0 mi SSW 5.8 mph - N/A   Clear
4:56 AM 70.0 °F - 59.0 °F 68% 29.76 in 10.0 mi SSW 4.6 mph - N/A   Clear
5:56 AM 69.1 °F - 57.0 °F 65% 29.74 in 10.0 mi SSW 6.9 mph - N/A   Clear
6:56 AM 69.1 °F - 57.0 °F 65% 29.75 in 10.0 mi SW 8.1 mph - N/A   Clear
7:56 AM 71.1 °F - 57.9 °F 63% 29.75 in 10.0 mi WSW 8.1 mph - N/A   Clear
8:56 AM 75.0 °F - 60.1 °F 60% 29.75 in 10.0 mi SW 6.9 mph - N/A   Clear
9:56 AM 80.1 °F 81.5 °F 63.0 °F 56% 29.74 in 10.0 mi WSW 10.4 mph - N/A   Clear
10:56 AM 82.0 °F 83.4 °F 64.0 °F 54% 29.74 in 10.0 mi WSW 11.5 mph - N/A   Clear
11:56 AM 78.1 °F - 64.0 °F 62% 29.79 in 10.0 mi West 9.2 mph - N/A   Clear
12:56 PM 78.1 °F - 64.9 °F 64% 29.80 in 10.0 mi WNW 9.2 mph - 0.00 in   Partly Cloudy
1:56 PM 81.0 °F 81.9 °F 62.1 °F 52% 29.75 in 10.0 mi North 11.5 mph 18.4 mph 0.00 in   Partly Cloudy
2:56 PM 80.1 °F 81.1 °F 61.0 °F 52% 29.77 in 10.0 mi WNW 8.1 mph - N/A   Clear
3:56 PM 82.0 °F - 52.0 °F 35% 29.77 in 10.0 mi WNW 15.0 mph 24.2 mph N/A   Partly Cloudy
4:56 PM 82.9 °F 82.4 °F 57.0 °F 41% 29.77 in 10.0 mi NW 18.4 mph 23.0 mph N/A   Partly Cloudy
5:56 PM 81.0 °F 80.4 °F 53.1 °F 38% 29.77 in 10.0 mi WNW 23.0 mph 34.5 mph N/A   Clear
6:56 PM 78.1 °F - 53.1 °F 42% 29.79 in 10.0 mi NW 21.9 mph 32.2 mph N/A   Clear
7:56 PM 73.9 °F - 52.0 °F 46% 29.81 in 10.0 mi NW 12.7 mph - N/A   Clear
8:56 PM 70.0 °F - 53.1 °F 55% 29.84 in 10.0 mi NW 11.5 mph - N/A   Clear
9:56 PM 66.0 °F - 53.1 °F 63% 29.87 in 10.0 mi NNW 6.9 mph - N/A   Clear
10:56 PM 63.0 °F - 54.0 °F 72% 29.88 in 10.0 mi NW 8.1 mph - N/A   Clear
11:56 PM 64.0 °F - 54.0 °F 70% 29.89 in 10.0 mi NW 8.1 mph - N/A   Clear